Location: Jetmore Motorplex
(37.9889°N, 99.8876°W)
Time: 10:14:54
(UTC+00:00)

Atlas 2A Centaur Rocket - Pass Details

Date: 17 February 2020
Orbit: 286 x 19437 km, 27.1° (Epoch: 29 March)

Event Time Altitude Azimuth Distance (km) Brightness Sun altitude
Rises 01:02:22 0° 259° (W) 7,340 10.0 -9.2°
Reaches altitude 10° 01:10:11 10° 250° (WSW) 4,050 7.7 -10.7°
Maximum altitude 01:16:33 23° 201° (SSW) 1,539 4.4 -12.0°
Drops below altitude 10° 01:19:16 10° 144° (SE) 1,607 3.9 -12.5°
Enters shadow 01:19:37 - 139° (SE) 1,706 4.0 -12.6°
